This demonstration page uses our WeatherBlox Daily Observations layout. Learn more.

Left ArrowRight Arrow

Hourly Observations for December 7, 2020

Temp ( °F °C ) Dew Point ( °F °C ) Humidity (%) Winds ( mph kmh ) Pressure ( in mb ) Visibility ( mi km ) Precip ( " mm )
12:51 am 00:51 Clear 41 5 11 -11.7 29 29 SE 9 15 30.15 1021 10 16.0934 0 0
1:51 am 01:51 Clear 39 3.9 9 -12.8 29 29 SSE 10 17 30.15 1021 10 16.0934 0 0
2:51 am 02:51 Clear 43 6.1 11 -11.7 27 27 SE 7 11 30.15 1021 10 16.0934 0 0
3:51 am 03:51 Clear 42 5.6 10 -12.2 27 27 SSE 13 20 30.14 1021 10 16.0934 0 0
4:51 am 04:51 Clear 44 6.7 10 -12.2 25 25 ESE 10 17 30.15 1021 10 16.0934 0 0
5:51 am 05:51 Clear 43 6.1 9 -12.8 25 25 SE 10 17 30.19 1022 10 16.0934 0 0
6:51 am 06:51 Clear 43 6.1 8 -13.3 24 24 ESE 16 26 30.22 1023 10 16.0934 0 0
7:51 am 07:51 Sunny 44 6.7 8 -13.3 23 23 ESE 15 24 30.24 1024 10 16.0934 0 0
8:51 am 08:51 Sunny 48 8.9 9 -12.8 20 20 ESE 16 26 30.25 1024 10 16.0934 0 0
9:51 am 09:51 Sunny 53 11.7 10 -12.2 18 18 SE 13 20 30.26 1025 10 16.0934 0 0
10:51 am 10:51 Sunny 59 15 11 -11.7 15 15 ESE 10 17 30.24 1024 10 16.0934 0 0
11:51 am 11:51 Sunny 61 16.1 13 -10.6 15 15 ESE 8 13 30.2 1023 10 16.0934 0 0
12:51 pm 12:51 Sunny 65 18.3 14 -10 14 14 SSE 9 15 30.16 1021 10 16.0934 0 0
1:51 pm 13:51 Sunny 66 18.9 14 -10 13 13 SSE 13 20 30.14 1021 10 16.0934 0 0
2:51 pm 14:51 Sunny 68 20 14 -10 12 12 ESE 9 15 30.11 1020 10 16.0934 0 0
3:51 pm 15:51 Sunny 70 21.1 12 -11.1 10 10 ESE 12 19 30.1 1019 10 16.0934 0 0
4:51 pm 16:51 Sunny 66 18.9 11 -11.7 11 11 SSE 9 15 30.1 1019 10 16.0934 0 0
5:51 pm 17:51 Clear 61 16.1 11 -11.7 14 14 SSE 9 15 30.13 1020 10 16.0934 0 0
6:51 pm 18:51 Clear 57 13.9 10 -12.2 15 15 SE 9 15 30.16 1022 10 16.0934 0 0
7:51 pm 19:51 Clear 56 13.3 11 -11.7 17 17 SE 9 15 30.19 1022 10 16.0934 0 0
8:51 pm 20:51 Clear 49 9.4 10 -12.2 21 21 SE 6 9 30.21 1023 10 16.0934 0 0
9:51 pm 21:51 Clear 49 9.4 11 -11.7 21 21 SE 10 17 30.22 1024 10 16.0934 0 0
11:51 pm 23:51 Clear 47 8.3 11 -11.7 23 23 SE 8 13 30.23 1024 10 16.0934 0 0

Powered by AerisWeather